{"data":{"norad_id":53789,"intl_designator":"2022-111S","name":"STARLINK-4666","alt_names":[],"object_type":"PAYLOAD","status":"ACTIVE","operator":null,"country":"US","launch_date":"2022-09-11","launch_site_code":"AFETR","launch_vehicle":null,"mission":null,"orbit_class":"UNKNOWN","rcs_meters":null,"size_class":null,"mass_kg":null,"dimensions":null,"purposes":["comms"],"wikipedia_slug":null,"has_3d_model":false,"image_url":null,"decayed_at":null,"tle_current":{"epoch":"2026-09-20T03:03:52.790112Z","epoch_age_seconds":116688,"freshness":"FRESH","line1":"1 53789U 22111S   26263.12769433  .00004291  00000+0  13814-3 0  9998","line2":"2 53789  53.1588 115.4135 0001216  86.8083 273.3059 15.34382184223114","mean_motion":15.34382184,"eccentricity":0.0001216,"inclination_deg":53.1588,"raan_deg":115.4135,"arg_perigee_deg":86.8083,"mean_anomaly_deg":273.3059,"bstar":0.00013814,"rev_number":22311,"period_min":93.848847765297,"perigee_km":461.92434101368,"apogee_km":463.58804623837,"semimajor_km":6840.893193626,"source":"CELESTRAK","updated_at":"2026-09-21T09:00:32.993759Z"}}}